Flag for Canada Weather past 2 weeks in Rouyn-Noranda, Quebec, Canada

Now
55 °F

Light rain. Mostly cloudy.


Feels Like: 52 °F
Forecast: 37 / 59 °F
Wind: 13 mph from North

Location: Rouyn Airport

Current Time: May 27, 2015 at 10:29:38 PM

Latest Report: May 27, 2015 at 10:00 PM


Visibility: 15 mi

Pressure: 29.87 "Hg

Humidity: 94%

Dew point: 54 °F

Location of Rouyn-NorandaLocation

Historic Weather in Rouyn-Noranda — Graph

°F

Rouyn-Noranda temperature yesterday

Maximum temperature yesterday: 73 °F (at 5:00 PM)
Minimum temperature yesterday: 57 °F (at 12:00 AM)
Average temperature yesterday: 64 °F

Past Weeks' High & Low Weather Summary

 TemperatureHumidityPressure
High77 °F (May 17, 6:00 PM)100% (May 17, 2:00 AM)30.41 "Hg (May 17, 2:00 AM)
Low25 °F (May 22, 6:00 AM)22% (May 14, 2:00 PM)29.69 "Hg (May 27, 5:00 AM)
Average51 °F70%30.01 "Hg
* Reported May 12 9:00 PM — May 27 9:00 PM, Rouyn-Noranda, Weather by CustomWeather, © 2015

Note: Actual official high and low records may vary slightly from our data, if they occured in-between our weather recording intervals... More about our weather records

Advertising

Rouyn-Noranda weather history for previous 24 hours

 ConditionsComfort  
Time TempWeatherWind HumidityBarometerVisibility
9:00 PM
Wed, May 27
57 °FLight rain. Mostly cloudy.15 mph94%29.81 "Hg15 mi
8:45 PM61 °FLight rain. Mostly cloudy.17 mph94%29.79 "Hg15 mi
8:00 PM68 °FMostly cloudy.5 mph69%29.76 "Hg15 mi
7:00 PM70 °FPartly sunny.20 mph64%29.73 "Hg15 mi
6:00 PM72 °FPartly sunny.24 mph61%29.72 "Hg15 mi
5:00 PM72 °FPartly sunny.17 mph65%29.71 "Hg15 mi
4:00 PM73 °FPartly sunny.25 mph61%29.71 "Hg15 mi
3:00 PM73 °FPartly sunny.18 mph61%29.71 "Hg15 mi
2:00 PM73 °FPartly sunny.15 mph65%29.72 "Hg15 mi
1:00 PM72 °FBroken clouds.17 mph69%29.72 "Hg15 mi
12:00 PM70 °FPartly sunny.17 mph73%29.72 "Hg15 mi
11:00 AM66 °FBroken clouds.17 mph83%29.73 "Hg12 mi
10:49 AM64 °FBroken clouds.13 mph94%29.73 "Hg15 mi
10:00 AM64 °FLow clouds.14 mph94%29.73 "Hg12 mi
9:00 AM64 °FMostly cloudy.14 mph94%29.73 "Hg10 mi
8:48 AM64 °FMostly cloudy.10 mph94%29.73 "Hg12 mi
8:00 AM64 °FPartly sunny.13 mph94%29.72 "Hg12 mi
7:53 AM64 °FMostly cloudy.12 mph94%29.72 "Hg12 mi
7:00 AM64 °FMostly cloudy.13 mph94%29.72 "Hg10 mi
6:52 AM64 °FMostly cloudy.13 mph94%29.72 "Hg10 mi
6:00 AM64 °FLight rain. Fog.16 mph94%29.70 "Hg6 mi
5:00 AM63 °FSprinkles. Mostly cloudy.13 mph100%29.69 "Hg15 mi
4:00 AM63 °FSprinkles. Mostly cloudy.8 mph94%29.72 "Hg15 mi
3:00 AM61 °FSprinkles. Mostly cloudy.7 mph100%29.79 "Hg15 mi
2:00 AM63 °FSprinkles. Mostly cloudy.2 mph94%29.81 "Hg15 mi
1:00 AM63 °FMostly cloudy.8 mph94%29.84 "Hg15 mi
12:00 AM61 °FMostly cloudy.8 mph94%29.87 "Hg15 mi
11:51 PM
Tue, May 26
61 °FMostly cloudy.7 mph94%29.87 "Hg15 mi
11:00 PM63 °FThunderstorms. Mostly cloudy.14 mph94%29.92 "Hg6 mi
10:00 PM63 °FThunderstorms. More clouds than sun.6 mph100%29.88 "Hg15 mi
Weather by CustomWeather, © 2015

See weather overviewHow to use our weather pages